星链-36891(STARLINK-36891)

导读

STARLINK-36891(NORAD编号68024)是美国SpaceX公司星链(Starlink)卫星互联网星座的成员,属于低轨(LEO)通信卫星。星链项目计划发射约4.2万颗卫星,旨在为全球提供高速低延迟互联网服务,尤其覆盖偏远地区及特殊场景,同时兼具军事与应急通信用途。 该卫星遵循SpaceX 2026年轨道调整计划,运行轨道高度从原550公里逐步降低至480公里,该调整可在故障时加速卫星再入大气层消毁,降低碰撞风险与太空碎片隐患,响应近地轨道太空安全需求。

基本信息
目录编号:
68024
目录名称:
STARLINK-36891
国际标识:
2026-040K
轨道中心:
EARTH
卫星名称:
星链-36891
卫星全名:
星链-36891(STARLINK-36891)
卫星状态:
在轨 (已飞行187 天)
发射日期:
2026-03-01 UTC
国别 :
美国 (US)
星等 :
--
轨道信息
数据来源 国际轨道数据
星历时间: 2026-09-03T15:41:03+0800
23小时前
查看轨道信息
半长轴: 6843.705km
偏心率: 0.0001683
轨道倾角: 97.284°
近地点辐角 87.228°
升交点赤经 193.878°
平近点角 272.915°
近地点: 464.416km
远地点: 466.72km
周期: 93.907分钟
每日圈数: 15.334367
详细信息
固有亮度:
5
最大亮度:
2.5
卫星平台:
Starlink V1.0
覆盖范围:
全球
运营商:
太空探索技术公司
运营商所在国:
美国
制造商(研发单位):
太空探索技术公司
制造商所在国:
美国
使用方式:
暂无
卫星简介
Starlink 计划是 SpaceX 推出的全球卫星互联网项目,通过发射低轨道卫星,为全球尤其是偏远地区提供高速、低延迟的互联网服务。自 2019 年起,Starlink 已部署数千颗卫星,旨在缩小全球数字鸿沟,推动互联网普及。该项目还为军事、航空等行业提供通信支持,带来广泛经济效益。
2D轨道图
3D轨道图
轨道高度分析图
轨道倾角分析图
轨道综合分析图
查看轨道综合分析图
交会数据列表
事件ID 空间交会对象 最接近时刻(TCA) 交会距离 交会风险概率(CRP) 交会风险指数(CRI) 操作
CDM_260905-090105-227606-802421
2026-09-05T
09:01:54+0000
2.710 km
极远距离
1.533708E-6 低风险 0.39
CDM_260905-082705-937706-802421
2026-09-05T
08:27:58+0000
2.916 km
极远距离
1.237877E-6 低风险 0.37